Regional Weather Roundup
Issued by NWS

Current Version | Previous Version | Text Only | Print | Product List | Glossary On
Versions: 1 2 3 4 5 6 7 8 9 10 11 12 13 14 15 16 17 18 19 20 21 22 23 24 25 26 27 28 29 30 31 32 33 34 35 36 37 38 39 40 41 42 43 44 45 46 47 48 49 50
000
ASUS44 KBMX 051210
RWRAL

ALABAMA REGIONAL WEATHER ROUNDUP
NATIONAL WEATHER SERVICE BIRMINGHAM AL
600 AM CST THU MAR 05 2015

NOTE: "FAIR" INDICATES FEW OR NO CLOUDS BELOW 12,000 FEET
WITH NO SIGNIFICANT WEATHER AND/OR OBSTRUCTIONS TO VISIBILITY.

THE REMARK "TC" DENOTES TEMPERATURE IN DEGREES CELSIUS.

ALZ001>011-014-016>018-020-051300-
NORTH ALABAMA

CITY           SKY/WX    TMP DP  RH WIND       PRES   REMARKS
MUSCLE SHOALS  MIX PCPN  28  25  86 N10G21    30.15R WCI  19
6HR MIN TEMP:  28; 6HR MAX TEMP:  34; 6HR PCP:  0.61;

HUNTSVILLE     CLOUDY    32  28  86 N9        30.10R FOG     WCI  24
6HR MIN TEMP:  32; 6HR MAX TEMP:  38; 6HR PCP:  0.53;

DECATUR        MIX PCPN  30  27  88 N18       30.10F FOG     WCI  18
6HR MIN TEMP:  30; 6HR MAX TEMP:  35;

HALEYVILLE     MIX PCPN  27  27 100 N13       30.09S FOG     WCI  16
6HR MIN TEMP:  27; 6HR MAX TEMP:  34; 6HR PCP:  0.47;

GADSDEN        CLOUDY    39  36  87 NW9       29.99R WCI  33
6HR MIN TEMP:  39; 6HR MAX TEMP:  48; 6HR PCP:  0.10;

$$

ALZ012-013-022-023-030>036-040>044-051300-
WEST CENTRAL ALABAMA

CITY           SKY/WX    TMP DP  RH WIND       PRES   REMARKS
TUSCALOOSA     CLOUDY    38  35  89 N10       30.09R WCI  31
6HR MIN TEMP:  38; 6HR MAX TEMP:  49; 6HR PCP:  0.28;

$$

ALZ015-024>027-033>036-040>044-051300-
CENTRAL ALABAMA

CITY           SKY/WX    TMP DP  RH WIND       PRES   REMARKS
BIRMINGHAM     LGT RAIN  37  35  92 NW16      30.05R FOG     WCI  28
6HR MIN TEMP:  37; 6HR MAX TEMP:  46; 6HR PCP:  0.14;

MONTGOMERY     MOCLDY    64  61  90 W7        29.91S
6HR MIN TEMP:  64; 6HR MAX TEMP:  72; 6HR PCP: TRACE;

SHELBY CO ARPT LGT RAIN  41  39  93 N9        29.98R
6HR MIN TEMP:  41; 6HR MAX TEMP:  61; 6HR PCP:  0.02;

MAXWELL AFB    MOCLDY    63  63 100 W7        29.92R
6HR MIN TEMP:  64; 6HR MAX TEMP:  70; 6HR PCP:  0.02;

GREENVILLE     CLOUDY    70  66  88 SW7       29.92R
6HR MIN TEMP:  67; 6HR MAX TEMP:  70; 6HR PCP:  0.06;

$$

ALZ019-021-028-029-037-038-045>048-051300-
EAST CENTRAL ALABAMA

CITY           SKY/WX    TMP DP  RH WIND       PRES   REMARKS
ANNISTON       CLOUDY    45  43  93 N8        29.94S
6HR MIN TEMP:  45; 6HR MAX TEMP:  70; 6HR PCP:  0.01;

ALEXANDER CITY CLOUDY    60  56  85 NW6       29.91R
6HR MIN TEMP:  60; 6HR MAX TEMP:  69; 6HR PCP:  0.01;

AUBURN         CLOUDY    63  61  94 SW15      29.94S
6HR MIN TEMP:  63; 6HR MAX TEMP:  66; 6HR PCP:  0.34;

$$

ALZ051>064-051300-
SOUTHWEST ALABAMA

CITY           SKY/WX    TMP DP  RH WIND       PRES   REMARKS
MOBILE         CLOUDY    69  68  96 SW9       29.97R FOG
6HR MIN TEMP:  69; 6HR MAX TEMP:  70;

BROOKLEY FIELD CLOUDY    70  68  93 SW5       29.97R FOG
6HR MIN TEMP:  64; 6HR MAX TEMP:  71; 6HR PCP:  0.23;

EVERGREEN      MOCLDY    70  68  93 SW10      29.94R
6HR MIN TEMP:  67; 6HR MAX TEMP:  71; 6HR PCP:  0.09;

$$

ALZ049-050-065>069-051300-
SOUTHEAST ALABAMA

CITY           SKY/WX    TMP DP  RH WIND       PRES   REMARKS
DOTHAN         CLOUDY    69  66  90 SW12      29.99F
6HR MIN TEMP:  69; 6HR MAX TEMP:  70; 6HR PCP: TRACE;

OZARK          CLOUDY    70  65  83 S12       29.95F
6HR MIN TEMP:  70; 6HR MAX TEMP:  71;

TROY           LGT RAIN  66  64  93 SW5       29.93S
6HR MIN TEMP:  66; 6HR MAX TEMP:  71; 6HR PCP:  0.80;

EUFAULA        MOCLDY    72  66  81 S10G18    29.92S
6HR MIN TEMP:  69; 6HR MAX TEMP:  72; 6HR PCP: TRACE;

$$


USA.gov is the U.S. government's official web portal to all federal, state and local government web resources and services.